{"data":{"norad_id":58128,"intl_designator":"2023-162L","name":"STARLINK-30787","alt_names":[],"object_type":"PAYLOAD","status":"ACTIVE","operator":null,"country":"US","launch_date":"2023-10-22","launch_site_code":"AFETR","launch_vehicle":null,"mission":null,"orbit_class":"UNKNOWN","rcs_meters":null,"size_class":null,"mass_kg":null,"dimensions":null,"purposes":["comms"],"wikipedia_slug":null,"has_3d_model":false,"image_url":null,"decayed_at":null,"tle_current":{"epoch":"2026-05-25T02:52:55.848576Z","epoch_age_seconds":71654,"freshness":"FRESH","line1":"1 58128U 23162L   26145.12009084  .00000079  00000+0  12406-4 0  9992","line2":"2 58128  43.0046  57.6539 0000891 259.0772 100.9979 15.27573971144032","mean_motion":15.27573971,"eccentricity":8.91e-5,"inclination_deg":43.0046,"raan_deg":57.6539,"arg_perigee_deg":259.0772,"mean_anomaly_deg":100.9979,"bstar":1.2406e-5,"rev_number":14403,"period_min":94.267120763869,"perigee_km":482.45581580427,"apogee_km":483.67848238364,"semimajor_km":6861.204149094,"source":"CELESTRAK","updated_at":"2026-05-25T13:38:18.532710Z"}}}